Wind_Speed
4 4 4 4 4 3 3 2 2 2 2 3 3 3 3 3 3 3 3 3 3 3 3 3 3 3 3 3 4 4 4 5 5 5 6 6 6 6 7 8 9 9 8
6 5 5 5 4 3 3 2 1 1 1 2 2 2 3 3 3 3 3 3 3 3 3 3 3 2 3 2 3 3 3 4 4 5 5 5 5 5 6 7 8 8 8
7 6 6 6 5 4 3 2 1 1 1 1 2 2 2 2 2 2 2 3 3 3 3 3 2 2 2 2 2 2 2 3 3 4 4 4 4 5 5 6 7 7 7
8 8 7 7 6 5 4 3 2 1 1 1 1 2 2 2 2 2 3 3 3 3 3 3 3 2 2 2 2 1 1 2 2 2 3 3 3 4 4 5 6 7 7
9 9 9 8 7 6 5 5 4 3 2 2 2 2 2 2 2 3 3 3 3 4 4 3 3 3 3 3 2 2 1 1 1 1 1 2 3 3 4 5 6 6 6
10 11 10 9 8 8 7 6 5 4 3 3 3 3 3 3 3 3 3 4 4 4 4 3 3 3 3 3 3 2 2 1 1 1 1 2 2 3 4 4 5 5 6
11 12 12 11 10 9 8 8 7 5 4 4 4 4 4 4 4 4 4 4 4 4 4 4 4 4 4 4 3 3 3 2 2 1 1 1 2 2 3 3 4 4 5
12 13 13 12 11 10 9 9 8 6 5 5 5 5 5 5 5 5 5 5 5 5 5 5 5 5 5 4 4 3 3 3 2 2 2 2 2 2 2 3 3 4 4
14 14 15 13 13 11 10 10 9 8 7 6 6 5 5 6 6 6 5 5 5 5 6 6 6 5 5 5 4 4 4 4 4 4 4 3 3 3 3 3 3 3 3
15 16 16 15 14 12 11 10 9 9 8 7 7 6 6 6 6 6 6 6 5 6 6 6 6 6 6 5 5 5 5 5 4 4 4 4 4 4 4 4 3 3 3
15 15 16 16 15 13 12 11 10 9 9 8 8 7 7 7 7 7 6 6 6 6 6 6 6 6 6 6 6 5 5 5 6 4 3 4 4 4 4 4 4 4 4
15 16 17 17 16 15 13 12 12 10 9 8 8 8 8 7 7 7 7 6 6 6 6 6 6 6 6 6 5 4 4 5 5 4 4 3 4 4 5 5 5 4 4
16 17 18 18 17 16 15 14 13 11 10 9 9 9 8 7 7 6 6 6 6 5 6 6 6 6 6 5 5 4 4 5 5 4 4 4 4 4 5 6 6 6 6
17 18 20 19 18 18 17 16 15 12 11 10 10 9 8 7 6 6 5 5 5 5 5 5 6 6 5 4 4 4 4 4 5 6 5 4 4 4 4 5 6 6 6
18 19 20 20 20 18 18 17 15 13 12 11 11 10 8 7 7 6 5 5 4 4 4 4 5 4 4 4 4 4 4 4 5 5 5 5 4 4 4 5 6 6 6
19 21 21 20 21 20 19 17 15 14 12 11 11 10 9 8 7 6 6 5 4 3 3 3 3 3 3 3 3 4 3 3 3 4 4 4 5 4 5 5 6 6 7
19 20 21 20 20 21 19 18 16 15 13 13 11 10 10 9 8 7 6 5 4 3 2 2 2 2 3 3 3 3 3 2 2 3 3 3 4 4 5 5 6 7 7
18 19 20 20 19 19 19 19 18 17 14 13 12 12 10 9 8 7 6 5 4 3 2 1 2 2 2 2 3 3 3 3 2 3 3 3 4 5 5 5 6 6 7
17 18 19 20 20 19 20 20 20 17 15 15 13 12 10 9 8 7 7 6 4 3 2 1 0 0 1 1 2 2 3 2 2 3 3 4 4 5 5 6 6 7 8
17 19 20 21 20 19 19 19 18 16 15 15 14 13 11 10 9 8 8 7 5 4 2 2 1 1 1 2 2 2 2 2 3 3 3 3 4 4 5 6 6 7 8
14 17 18 19 20 19 18 19 17 15 15 15 15 13 12 11 10 9 8 7 6 5 4 3 2 1 1 2 2 2 3 3 3 4 4 4 4 4 5 6 6 7 8
11 14 16 17 18 17 18 18 17 16 15 16 15 14 13 12 11 10 8 8 7 6 5 3 3 2 2 2 2 3 3 3 4 4 4 4 4 5 5 6 6 7 8
9 13 14 15 17 17 17 18 17 17 16 16 15 14 13 12 11 10 9 8 7 6 5 4 3 2 2 2 2 3 3 4 4 4 4 5 5 5 6 6 7 7 8
8 11 12 14 15 17 16 16 17 18 18 17 15 15 14 12 12 11 10 9 8 6 5 4 3 3 2 1 1 2 3 3 4 5 5 5 5 6 6 7 7 8 9
8 10 12 13 15 16 16 16 17 19 19 17 16 15 14 13 13 11 11 10 8 7 6 5 4 3 1 0 1 2 3 4 4 5 5 6 7 7 8 8 8 9 10
8 10 11 13 15 15 16 17 17 19 18 17 16 14 14 14 13 12 11 10 9 8 7 6 4 4 3 2 2 3 4 5 5 6 6 7 8 9 9 10 10 11 11
Wind_Direction
195 192 178 164 151 138 122 97 57 25 30 33 39 43 43 48 52 55 54 51 44 40 40 40 42 48 56 65 75 80 82 83 86 87 89 88 87 90 92 93 92 91 88
202 199 194 182 172 161 155 146 133 359 10 23 27 30 32 37 41 39 36 31 25 21 21 19 22 29 37 49 65 76 81 84 90 94 95 92 94 94 95 97 93 91 88
209 204 199 193 187 181 181 181 191 262 319 356 5 7 9 13 18 16 14 10 8 5 2 0 1 5 12 26 47 62 71 79 94 104 102 90 87 89 95 100 98 94 92
212 207 203 201 197 194 196 201 207 237 270 301 332 340 341 345 351 354 355 354 353 350 346 344 345 344 344 350 3 22 46 75 99 112 110 100 92 89 96 101 104 100 97
213 210 207 204 201 200 201 208 215 227 248 271 289 299 308 314 323 328 335 336 338 339 339 337 334 332 328 327 336 344 357 33 73 119 123 113 109 105 104 102 104 105 104
216 213 210 205 204 205 207 212 219 226 244 262 272 278 286 292 306 313 317 319 321 328 334 336 329 327 324 318 325 326 320 324 333 348 134 132 135 127 117 113 110 108 105
215 212 211 209 209 208 210 215 221 231 245 261 272 281 286 290 295 303 308 308 307 312 318 321 319 316 316 315 314 311 297 287 287 276 205 185 172 157 139 128 124 119 112
215 213 213 214 214 212 213 216 222 232 245 260 268 275 283 291 293 297 302 299 299 302 309 312 310 305 307 309 306 299 288 280 282 270 233 211 204 188 171 155 143 136 127
222 219 215 213 215 216 217 217 223 231 244 255 258 265 279 288 295 298 299 298 298 300 305 309 308 303 302 306 307 293 283 280 281 273 250 239 223 206 195 192 179 169 163
222 221 217 214 215 219 220 220 224 231 241 248 254 265 278 285 292 297 298 297 297 301 303 304 305 301 297 301 305 292 279 275 276 277 249 228 223 218 215 213 210 204 197
224 225 221 215 215 220 223 223 225 231 238 245 256 266 276 281 284 291 291 295 295 297 301 300 301 304 299 300 303 294 280 276 274 268 252 239 229 227 228 226 221 221 219
226 225 222 217 218 221 223 224 226 230 238 247 254 261 271 275 279 285 286 290 294 294 298 297 298 301 304 302 303 301 283 281 278 258 272 257 247 244 240 237 233 235 233
225 222 218 218 219 218 222 224 226 231 240 247 250 255 263 265 273 278 283 286 290 294 299 301 303 302 307 303 300 296 281 273 273 272 279 272 262 256 251 244 245 246 246
229 220 219 221 220 219 221 223 225 229 237 244 245 249 256 258 265 266 269 276 281 289 294 300 307 306 311 308 309 306 286 273 269 267 268 276 267 263 260 249 245 249 250
231 222 222 224 223 219 218 221 224 227 232 236 236 240 244 249 250 252 258 268 279 285 293 304 311 304 314 311 305 305 302 287 280 266 265 268 260 261 264 256 253 253 253
231 227 225 227 227 221 218 218 221 223 226 230 232 234 235 236 239 242 247 260 268 264 280 306 310 304 305 300 298 309 306 293 287 286 287 270 259 263 271 268 260 258 261
229 227 229 232 229 221 219 218 218 220 224 227 228 225 226 228 227 229 234 239 241 244 266 296 305 304 304 299 303 316 318 302 287 304 303 282 274 270 273 274 266 263 263
225 227 225 227 222 218 220 219 218 218 220 221 221 223 223 221 220 221 219 223 230 239 259 288 297 305 310 307 315 327 326 310 295 304 309 295 288 284 280 279 277 271 268
225 226 222 222 219 217 218 214 214 216 218 221 221 217 211 210 212 209 207 210 209 211 223 229 304 4 337 338 342 343 337 328 314 315 321 315 303 299 293 286 282 280 276
229 223 221 219 217 214 216 212 210 214 217 217 214 210 205 203 202 199 200 200 200 198 183 168 144 97 34 20 13 7 359 352 348 342 330 322 321 320 312 303 293 287 283
222 213 215 216 213 212 209 206 205 210 212 210 207 201 199 199 197 196 196 193 194 190 180 175 157 136 74 42 31 23 14 6 0 358 350 339 330 326 325 321 312 302 293
219 207 213 215 207 206 202 203 206 205 205 202 197 196 196 194 193 194 192 188 188 187 182 169 150 135 106 71 51 33 22 18 18 10 359 348 341 337 334 327 320 312 303
213 207 206 208 206 203 198 201 204 198 197 195 193 194 192 190 191 192 193 189 184 180 175 166 154 146 131 92 56 38 29 23 16 9 1 355 349 343 334 325 321 318 312
211 209 206 201 199 195 194 195 196 196 196 193 194 190 189 187 189 191 191 191 190 186 182 175 167 158 146 106 44 24 17 12 8 5 358 351 347 342 335 329 325 319 314
195 191 191 191 191 192 192 191 194 194 195 195 191 188 189 190 191 193 191 191 192 194 194 189 182 186 193 204 351 352 355 354 351 348 345 342 339 336 334 331 327 322 318
167 173 184 182 184 185 186 188 188 190 191 191 188 188 189 190 192 194 193 194 199 203 205 208 215 227 239 258 282 303 317 326 330 331 329 329 328 326 325 324 322 318 316
Height
5896 5896 5896 5897 5898 5899 5899 5900 5901 5901 5901 5901 5901 5900 5900 5899 5899 5898 5898 5897 5897 5896 5895 5895 5894 5894 5894 5893 5893 5893 5892 5892 5892 5891 5891 5890 5890 5890 5890 5889 5889 5889 5889
5895 5896 5896 5897 5898 5899 5900 5900 5901 5901 5901 5901 5901 5901 5901 5900 5900 5899 5898 5898 5897 5896 5896 5896 5895 5895 5894 5894 5894 5893 5893 5893 5892 5892 5892 5891 5891 5891 5890 5890 5890 5890 5890
5894 5895 5896 5897 5898 5899 5900 5900 5901 5902 5902 5902 5902 5902 5901 5901 5900 5900 5899 5898 5897 5897 5896 5896 5895 5895 5894 5894 5894 5893 5893 5893 5893 5893 5892 5892 5892 5891 5891 5891 5891 5891 5892
5893 5894 5895 5896 5897 5898 5900 5900 5901 5901 5902 5902 5902 5902 5902 5901 5901 5900 5899 5899 5898 5897 5896 5896 5896 5895 5894 5894 5894 5894 5893 5893 5893 5893 5893 5893 5893 5892 5892 5892 5892 5892 5893
5892 5893 5894 5895 5896 5898 5899 5900 5901 5901 5902 5902 5902 5902 5902 5902 5901 5900 5900 5899 5898 5897 5897 5896 5896 5895 5894 5894 5894 5894 5893 5894 5893 5893 5893 5893 5893 5893 5893 5893 5893 5893 5894
5891 5892 5893 5894 5895 5897 5898 5899 5900 5901 5901 5902 5902 5902 5902 5901 5901 5900 5899 5899 5898 5897 5896 5896 5895 5895 5894 5894 5894 5894 5893 5894 5894 5893 5893 5894 5894 5894 5894 5894 5894 5894 5895
5888 5890 5891 5893 5894 5896 5897 5898 5899 5900 5901 5901 5901 5901 5901 5901 5901 5900 5899 5899 5898 5897 5896 5896 5895 5894 5894 5894 5894 5894 5893 5894 5894 5894 5894 5894 5894 5894 5895 5895 5895 5895 5895
5886 5888 5889 5891 5893 5894 5896 5897 5898 5899 5900 5900 5901 5901 5901 5901 5900 5900 5899 5898 5897 5897 5896 5895 5894 5894 5893 5893 5894 5893 5893 5893 5894 5894 5894 5894 5894 5895 5895 5895 5895 5896 5896
5883 5885 5887 5889 5891 5893 5894 5895 5897 5898 5899 5899 5900 5900 5900 5900 5900 5899 5898 5898 5897 5896 5895 5894 5894 5893 5893 5893 5893 5893 5893 5893 5893 5893 5894 5894 5894 5894 5895 5895 5896 5896 5896
5879 5882 5884 5886 5889 5891 5893 5894 5895 5896 5897 5898 5899 5899 5899 5899 5899 5898 5898 5897 5896 5895 5894 5894 5893 5892 5892 5892 5892 5892 5892 5892 5892 5892 5892 5893 5893 5894 5895 5895 5895 5896 5896
5876 5878 5881 5883 5886 5889 5891 5892 5893 5895 5896 5897 5897 5898 5898 5898 5897 5897 5897 5896 5895 5895 5894 5893 5892 5891 5891 5891 5891 5891 5891 5891 5891 5891 5891 5892 5892 5893 5894 5894 5895 5895 5895
5872 5875 5878 5880 5883 5886 5888 5890 5892 5893 5894 5895 5896 5896 5896 5896 5896 5896 5895 5895 5894 5894 5893 5892 5891 5890 5890 5890 5890 5890 5890 5889 5889 5890 5890 5891 5891 5892 5892 5893 5893 5894 5894
5868 5870 5873 5877 5880 5883 5885 5888 5889 5891 5892 5893 5894 5895 5895 5895 5895 5895 5894 5894 5893 5893 5892 5891 5891 5890 5889 5889 5888 5888 5888 5888 5888 5889 5889 5890 5890 5890 5891 5891 5892 5893 5893
5865 5867 5870 5873 5876 5879 5882 5885 5887 5888 5890 5891 5892 5893 5893 5893 5893 5894 5893 5893 5893 5892 5891 5891 5890 5889 5889 5888 5887 5887 5887 5887 5887 5888 5888 5888 5888 5889 5889 5890 5891 5891 5891
5861 5863 5866 5869 5873 5876 5879 5881 5884 5886 5888 5889 5890 5891 5891 5892 5892 5892 5892 5892 5892 5891 5891 5890 5889 5889 5888 5887 5887 5887 5887 5886 5886 5886 5887 5887 5887 5887 5888 5888 5889 5889 5890
5856 5859 5862 5865 5868 5872 5874 5877 5880 5883 5885 5887 5888 5889 5890 5890 5891 5891 5891 5892 5891 5891 5890 5889 5889 5888 5887 5887 5887 5886 5886 5886 5885 5886 5885 5886 5886 5886 5886 5887 5887 5887 5888
5851 5854 5858 5860 5863 5867 5870 5874 5876 5879 5882 5884 5885 5887 5888 5888 5889 5890 5890 5891 5890 5890 5889 5889 5888 5888 5887 5887 5886 5886 5885 5885 5885 5885 5884 5884 5884 5885 5885 5885 5885 5886 5886
5847 5851 5854 5857 5860 5864 5867 5870 5873 5876 5878 5881 5882 5884 5885 5886 5887 5888 5889 5889 5890 5889 5889 5888 5888 5887 5887 5886 5886 5885 5885 5884 5884 5884 5884 5883 5883 5883 5883 5884 5884 5884 5884
5843 5846 5850 5853 5856 5860 5863 5866 5869 5872 5875 5878 5879 5881 5883 5884 5885 5886 5887 5888 5888 5888 5888 5888 5887 5887 5887 5886 5885 5885 5884 5884 5883 5883 5883 5883 5882 5882 5882 5882 5882 5882 5882
5838 5841 5846 5849 5852 5855 5858 5862 5865 5869 5872 5874 5876 5878 5880 5882 5884 5885 5886 5887 5887 5888 5888 5887 5887 5887 5887 5886 5886 5885 5884 5884 5883 5883 5882 5882 5882 5881 5881 5880 5880 5880 5880
5834 5836 5840 5844 5848 5851 5855 5859 5862 5866 5869 5871 5874 5876 5878 5880 5882 5883 5884 5885 5886 5887 5887 5887 5887 5887 5886 5886 5885 5885 5885 5884 5883 5882 5882 5881 5881 5880 5879 5879 5878 5878 5878
5830 5834 5838 5841 5844 5847 5851 5856 5860 5863 5866 5869 5871 5873 5876 5878 5880 5881 5883 5884 5885 5885 5886 5886 5886 5886 5886 5886 5885 5885 5884 5884 5883 5882 5881 5881 5880 5879 5878 5878 5877 5876 5875
5828 5832 5836 5839 5842 5845 5849 5853 5857 5860 5864 5866 5869 5872 5874 5876 5878 5880 5882 5883 5884 5884 5885 5885 5885 5885 5885 5885 5885 5885 5884 5883 5882 5881 5880 5880 5879 5878 5877 5876 5875 5874 5873
5829 5831 5834 5838 5841 5844 5847 5851 5854 5858 5861 5864 5867 5870 5872 5874 5876 5878 5880 5881 5882 5883 5884 5884 5884 5884 5884 5884 5884 5884 5883 5882 5881 5880 5880 5879 5878 5877 5876 5875 5874 5872 5871
5828 5830 5833 5836 5839 5843 5846 5849 5852 5856 5859 5862 5865 5868 5870 5872 5875 5876 5878 5879 5880 5881 5882 5883 5883 5883 5883 5883 5882 5882 5882 5881 5880 5879 5878 5877 5876 5875 5874 5873 5871 5870 5869
5827 5829 5832 5835 5838 5841 5844 5848 5851 5854 5857 5860 5863 5866 5868 5870 5873 5874 5876 5877 5878 5880 5880 5881 5881 5881 5881 5881 5881 5880 5880 5879 5878 5877 5876 5875 5874 5873 5871 5870 5869 5867 5866